This is the latest recevied weather packets stored in our database for station/object SR6WVX. If no packets are shown the sender has not sent any weather packets the latest 10 day(s).
| Time | Temp. | Humidity | Pressure | Rain* | Wind** | Luminosity | Snow |
|---|---|---|---|---|---|---|---|
| 1778108950 | 13.33° C | 92% | 1001.8 hPa | 4.06 mm | - | - | - |
| 1778108650 | 13.33° C | 92% | 1002.1 hPa | 3.05 mm | - | - | - |
| 1778108350 | 13.33° C | 92% | 1002.2 hPa | 3.05 mm | - | - | - |
| 1778108050 | 13.33° C | 92% | 1002.2 hPa | 2.54 mm | - | - | - |
| 1778107749 | 13.33° C | 92% | 1001.9 hPa | 2.03 mm | - | - | - |
| 1778107449 | 13.33° C | 92% | 1001.5 hPa | 1.52 mm | - | - | - |
| 1778107149 | 13.33° C | 92% | 1001.4 hPa | 1.02 mm | - | - | - |
| 1778106848 | 13.89° C | 92% | 1001.4 hPa | 0.51 mm | - | - | - |
| 1778106548 | 13.89° C | 92% | 1001.8 hPa | 0 mm | - | - | - |
| 1778106248 | 13.89° C | 92% | 1001.6 hPa | 0 mm | - | - | - |
| 1778105948 | 13.89° C | 92% | 1001.5 hPa | 0 mm | - | - | - |
| 1778105647 | 13.89° C | 92% | 1001.4 hPa | 0 mm | - | - | - |
| 1778105347 | 13.89° C | 91% | 1001.4 hPa | 0 mm | - | - | - |
| 1778105047 | 13.89° C | 91% | 1001.5 hPa | 0 mm | - | - | - |
| 1778104747 | 13.89° C | 91% | 1001.5 hPa | 0.51 mm | - | - | - |
| 1778104446 | 13.89° C | 91% | 1001.3 hPa | 0.51 mm | - | - | - |
| 1778104146 | 13.89° C | 91% | 1001.3 hPa | 0.51 mm | - | - | - |
| 1778103846 | 13.89° C | 91% | 1001.2 hPa | 0.51 mm | - | - | - |
| 1778103545 | 13.33° C | 91% | 1001.3 hPa | 0.51 mm | - | - | - |
| 1778103245 | 13.33° C | 91% | 1001.3 hPa | 0.51 mm | - | - | - |
| 1778102945 | 13.33° C | 91% | 1001.4 hPa | 0.51 mm | - | - | - |
| 1778102645 | 13.33° C | 91% | 1001.3 hPa | 0.51 mm | - | - | - |
| 1778102344 | 13.33° C | 91% | 1001.3 hPa | 1.02 mm | - | - | - |
| 1778102044 | 13.89° C | 91% | 1001.3 hPa | 1.02 mm | - | - | - |
| 1778101744 | 13.89° C | 91% | 1001 hPa | 1.02 mm | - | - | - |
* Rain latest hour (hover to see other rain measurements)
** Current wind speed in m/s (hover to see current wind gust speed)